Location: Lake Crest
(37.6062°N, 88.9176°W)
Time: 13:26:29
(UTC+00:00)

Abrixas rocket - Pass Details

Date: 15 December 2019
Orbit: 354 x 364 km, 48.4° (Epoch: 23 January)

Event Time Altitude Azimuth Distance (km) Brightness Sun altitude
Rises 00:25:00 0° 269° (W) 2,188 7.3 -20.5°
Reaches altitude 10° 00:27:21 10° 287° (WNW) 1,340 5.6 -20.9°
Enters shadow 00:29:18 20° 327° (NNW) 906 4.1 -21.3°
